Stations météo

réclame
Mon MeteoGroup
Landsort, Suède (2582): Température de l'air & dewpoint: 19.09.2018 11:00:00 - 25.09.2018 11:00:00 (CEST)Landsort, Suède (2582): Vitesse du vent & gusts: 19.09.2018 11:00:00 - 25.09.2018 11:00:00 (CEST)Landsort, Suède (2582): Direction du vent: 19.09.2018 11:00:00 - 25.09.2018 11:00:00 (CEST)Landsort, Suède (2582): reduced air pressure: 19.09.2018 11:00:00 - 25.09.2018 11:00:00 (CEST)Landsort, Suède (2582): visibility: 19.09.2018 11:00:00 - 25.09.2018 11:00:00 (CEST)Landsort, Suède (2582): Quantités de précipitations: 19.09.2018 11:00:00 - 25.09.2018 11:00:00 (CEST)
Date & Time tt [°C] td [°C] ff [km/h] ff [knt] fx [km/h] fx [knt] dd ppp [hPa] vv [km] rr [mm]
25.09.2018 11:00:00 - - - - - - - - - -
25.09.2018 10:00:00 - - - - - - - - - -
25.09.2018 09:00:00 - - - - - - - - - -
25.09.2018 08:00:00 - - - - - - - - - -
25.09.2018 07:00:00 - - - - - - - - - -
25.09.2018 06:00:00 - - - - - - - - - -
25.09.2018 05:00:00 - - - - - - - - - -
25.09.2018 04:00:00 - - - - - - - - - -
25.09.2018 03:00:00 - - - - - - - - - -
25.09.2018 02:00:00 - - - - - - - - - -
25.09.2018 01:00:00 - - - - - - - - - -
25.09.2018 00:00:00 - - - - - - - - - -
24.09.2018 23:00:00 - - - - - - - - - -
24.09.2018 22:00:00 - - - - - - - - - -
24.09.2018 21:00:00 - - - - - - - - - -
24.09.2018 20:00:00 - - - - - - - - - -
24.09.2018 19:00:00 - - - - - - - - - -
24.09.2018 18:00:00 - - - - - - - - - -
24.09.2018 17:00:00 - - - - - - - - - -
24.09.2018 16:00:00 - - - - - - - - - -
24.09.2018 15:00:00 - - - - - - - - - -
24.09.2018 14:00:00 - - - - - - - - - -
24.09.2018 13:00:00 - - - - - - - - - -
24.09.2018 12:00:00 - - - - - - - - - -
24.09.2018 11:00:00 - - - - - - - - - -
24.09.2018 10:00:00 - - - - - - - - - -
24.09.2018 09:00:00 - - - - - - - - - -
24.09.2018 08:00:00 - - - - - - - - - -
24.09.2018 07:00:00 - - - - - - - - - -
24.09.2018 06:00:00 - - - - - - - - - -
24.09.2018 05:00:00 - - - - - - - - - -
24.09.2018 04:00:00 - - - - - - - - - -
24.09.2018 03:00:00 - - - - - - - - - -
24.09.2018 02:00:00 - - - - - - - - - -
24.09.2018 01:00:00 - - - - - - - - - -
24.09.2018 00:00:00 - - - - - - - - - -
23.09.2018 23:00:00 - - - - - - - - - -
23.09.2018 22:00:00 - - - - - - - - - -
23.09.2018 21:00:00 - - - - - - - - - -
23.09.2018 20:00:00 - - - - - - - - - -
23.09.2018 19:00:00 - - - - - - - - - -
23.09.2018 18:00:00 - - - - - - - - - -
23.09.2018 17:00:00 - - - - - - - - - -
23.09.2018 16:00:00 - - - - - - - - - -
23.09.2018 15:00:00 - - - - - - - - - -
23.09.2018 14:00:00 - - - - - - - - - -
23.09.2018 13:00:00 - - - - - - - - - -
23.09.2018 12:00:00 - - - - - - - - - -
23.09.2018 11:00:00 - - - - - - - - - -
23.09.2018 10:00:00 - - - - - - - - - -
23.09.2018 09:00:00 - - - - - - - - - -
23.09.2018 08:00:00 - - - - - - - - - -
23.09.2018 07:00:00 - - - - - - - - - -
23.09.2018 06:00:00 - - - - - - - - - -
23.09.2018 05:00:00 - - - - - - - - - -
23.09.2018 04:00:00 - - - - - - - - - -
23.09.2018 03:00:00 - - - - - - - - - -
23.09.2018 02:00:00 - - - - - - - - - -
23.09.2018 01:00:00 - - - - - - - - - -
23.09.2018 00:00:00 - - - - - - - - - -
22.09.2018 23:00:00 - - - - - - - - - -
22.09.2018 22:00:00 - - - - - - - - - -
22.09.2018 21:00:00 - - - - - - - - - -
22.09.2018 20:00:00 - - - - - - - - - -
22.09.2018 19:00:00 - - - - - - - - - -
22.09.2018 18:00:00 - - - - - - - - - -
22.09.2018 17:00:00 - - - - - - - - - -
22.09.2018 16:00:00 - - - - - - - - - -
22.09.2018 15:00:00 - - - - - - - - - -
22.09.2018 14:00:00 - - - - - - - - - -
22.09.2018 13:00:00 - - - - - - - - - -
22.09.2018 12:00:00 - - - - - - - - - -
22.09.2018 11:00:00 - - - - - - - - - -
22.09.2018 10:00:00 - - - - - - - - - -
22.09.2018 09:00:00 - - - - - - - - - -
22.09.2018 08:00:00 - - - - - - - - - -
22.09.2018 07:00:00 - - - - - - - - - -
22.09.2018 06:00:00 - - - - - - - - - -
22.09.2018 05:00:00 - - - - - - - - - -
22.09.2018 04:00:00 - - - - - - - - - -
22.09.2018 03:00:00 - - - - - - - - - -
22.09.2018 02:00:00 11,5 8,4 40 22 59 32 SW 993,4 21 0,0
22.09.2018 01:00:00 11,8 9,0 40 21 56 30 SW 993,8 21 0,0
22.09.2018 00:00:00 12,0 9,7 39 21 53 29 SSW 994,3 24 0,0
21.09.2018 23:00:00 12,1 9,5 34 18 49 26 SSW 994,6 33 0,3
21.09.2018 22:00:00 11,6 10,3 20 11 69 37 SSW 994,9 9 1,2
21.09.2018 21:00:00 10,8 8,6 34 19 70 38 W 994,4 7 2,3
21.09.2018 20:00:00 13,2 12,3 49 26 68 37 WSW 994,6 2,6 7,1
21.09.2018 19:00:00 15,1 12,4 37 20 58 32 SSW 993,7 13 0,0
21.09.2018 18:00:00 15,4 12,9 47 25 58 32 SSW 994,4 13 0,0
21.09.2018 17:00:00 15,0 12,5 42 23 58 32 S 994,9 14 0,0
21.09.2018 16:00:00 14,8 12,5 39 21 58 32 S 996,0 13 0,0
21.09.2018 15:00:00 15,1 12,8 43 23 55 30 S 996,7 14 0,0
21.09.2018 14:00:00 14,8 12,3 40 21 47 25 S 998,2 16 0,0
21.09.2018 13:00:00 12,7 11,8 22 12 33 18 SSE 1000,0 11 0,0
21.09.2018 12:00:00 13,4 12,3 27 15 36 19 S 1001,8 11 0,0
21.09.2018 11:00:00 12,9 12,1 24 13 37 20 S 1002,9 8 0,0
21.09.2018 10:00:00 13,6 12,7 28 15 39 21 S 1003,7 11 0,0
21.09.2018 09:00:00 13,6 12,8 29 15 42 23 S 1004,4 11 0,0
21.09.2018 08:00:00 13,5 12,7 29 15 42 23 S 1005,1 10 0,0
21.09.2018 07:00:00 13,6 12,8 30 16 37 20 SSW 1005,5 10 0,0
21.09.2018 06:00:00 13,2 12,6 31 17 - - SSW 1006,2 14 0,0
21.09.2018 05:00:00 11,0 10,5 26 14 29 16 S 1007,1 9 0,0
21.09.2018 04:00:00 11,7 10,8 16 8 29 16 S 1007,8 32 0,0
21.09.2018 03:00:00 12,6 11,7 19 10 31 17 SSW 1008,7 10 0,1
21.09.2018 02:00:00 12,5 11,1 19 11 31 17 SW 1009,4 35 0,0
21.09.2018 01:00:00 12,2 10,8 20 11 27 14 SW 1009,8 26 0,0
21.09.2018 00:00:00 12,2 9,8 18 10 32 17 WSW 1010,0 33 0,0
20.09.2018 23:00:00 12,1 8,2 21 11 - - W 1010,0 30 0,0
20.09.2018 22:00:00 12,5 8,6 29 16 36 20 W 1009,8 25 0,0
20.09.2018 21:00:00 11,9 9,6 24 13 46 25 W 1009,4 33 0,0
20.09.2018 20:00:00 12,6 11,3 30 16 48 26 WSW 1008,8 29 0,0
20.09.2018 19:00:00 13,5 11,9 35 19 48 26 SW 1008,2 30 0,0
20.09.2018 18:00:00 13,6 11,8 34 18 46 25 SW 1007,7 25 0,0
20.09.2018 17:00:00 13,8 11,3 24 13 33 18 SW 1008,1 21 0,0
20.09.2018 16:00:00 15,1 10,5 18 10 33 18 SW 1008,1 27 0,0
20.09.2018 15:00:00 14,6 9,6 22 12 34 19 SW 1008,5 22 0,0
20.09.2018 14:00:00 13,9 9,1 20 11 37 20 WSW 1008,8 17 0,0
20.09.2018 13:00:00 13,9 8,9 26 14 39 21 WSW 1009,0 21 0,0
20.09.2018 12:00:00 13,4 8,9 27 14 47 26 WSW 1008,9 21 0,0
20.09.2018 11:00:00 13,8 10,8 32 18 47 26 SW 1008,4 18 0,0
20.09.2018 10:00:00 14,0 11,7 35 19 50 27 SW 1007,9 17 0,0
20.09.2018 09:00:00 13,9 11,9 32 18 50 27 SW 1007,2 17 0,0
20.09.2018 08:00:00 14,3 11,8 37 20 51 28 SW 1007,4 21 0,0
20.09.2018 07:00:00 14,4 12,3 31 17 51 28 SW 1007,0 21 0,0
20.09.2018 06:00:00 14,9 12,4 35 19 50 27 SSW 1006,8 21 0,0
20.09.2018 05:00:00 14,7 12,4 34 18 52 28 SW 1007,3 20 0,0
20.09.2018 04:00:00 15,0 12,3 34 19 52 28 SSW 1007,2 20 0,0
20.09.2018 03:00:00 15,0 12,5 36 19 51 28 SSW 1007,5 19 0,0
20.09.2018 02:00:00 15,1 12,6 36 19 51 28 SW 1007,9 21 0,0
20.09.2018 01:00:00 - - - - 44 24 - - - -
20.09.2018 00:00:00 15,1 12,8 31 17 45 24 SW 1008,9 28 0,0
19.09.2018 23:00:00 15,5 12,4 34 18 45 24 SW 1009,3 25 0,0
19.09.2018 22:00:00 15,1 12,4 25 13 44 24 SW 1009,5 23 0,0
19.09.2018 21:00:00 15,4 12,3 29 16 40 21 SW 1009,8 23 0,0
19.09.2018 20:00:00 15,1 12,2 24 13 38 21 SW 1009,7 26 0,0
19.09.2018 19:00:00 14,1 12,1 16 9 33 18 WSW 1009,9 26 0,0
19.09.2018 18:00:00 14,9 12,4 23 13 36 20 SW 1010,0 28 0,0
19.09.2018 17:00:00 15,3 11,9 23 12 38 21 SW 1010,2 31 0,0
19.09.2018 16:00:00 17,3 11,3 27 15 44 24 WSW 1009,9 30 0,0
19.09.2018 15:00:00 15,1 10,9 29 16 44 24 WSW 1009,8 29 0,0
19.09.2018 14:00:00 15,0 11,0 29 16 42 23 WSW 1009,4 30 0,0
19.09.2018 13:00:00 15,5 11,3 31 17 42 23 WSW 1008,7 27 0,0
19.09.2018 12:00:00 14,6 10,8 32 17 44 24 WSW 1008,6 27 0,0
19.09.2018 11:00:00 14,7 11,3 27 15 46 25 WSW 1008,6 25 0,0

tt = Température de l'air
td = dewpoint
ff = Vitesse du vent
fx = gusts
dd = Direction du vent
ppp = reduced air pressure
vv = visibility
rr = Quantités de précipitations

stations d'obs. à proximité